Vertical_Velocity
-2 -1 2 -1 -2 -0 -3 -0 0 1 1 1 -1 -2 -1 1 -0 0 -10 9 5 2 -4 -3 1 -1 -2 1 5 3 -2 -1 -5 3 -12 -4 3 -13 -8 6 2 3 -1 -7 -5
0 -0 -1 -1 -0 -1 -1 -3 -1 -0 -3 -2 0 -1 0 -2 -1 -0 1 -1 1 2 -8 -4 -8 -7 -3 -1 1 -2 -0 -3 -3 -2 -3 -3 6 0 6 -1 -7 -4 1 8 6
-2 -2 -1 -2 0 1 3 -2 -3 -1 -1 0 -1 -1 -2 -1 -1 -4 -4 -2 1 5 2 2 -0 4 -0 1 -0 0 -2 -2 -12 -2 6 -1 1 2 2 -2 -6 -4 6 -6 -13
1 -2 -2 -1 0 -1 -1 -0 -1 -0 -2 -2 1 -1 -2 -2 -3 -5 -1 -2 3 -1 1 -0 -0 -2 1 -1 1 1 -2 2 -9 -2 3 -0 1 -3 4 -23 2 -4 11 -1 -10
-2 2 -1 -0 -0 1 0 0 0 1 -1 -1 -3 -3 -2 -3 -4 2 -5 2 5 3 -2 1 -1 1 0 1 0 2 -2 2 -2 0 -0 6 -4 -5 -5 1 -2 -2 7 0 -8
-3 2 0 -2 1 1 -0 -1 1 1 0 0 0 -1 -3 -6 -3 -1 1 -2 -0 2 -2 -3 -1 1 0 -0 -1 0 2 -5 -5 -5 1 4 -2 1 -12 5 -0 4 -2 1 -6
-0 3 1 -2 1 2 -0 0 2 -0 -1 -1 0 -0 -2 -1 -2 -1 -1 7 -3 -4 -2 0 -2 -1 1 -2 4 -1 -1 -3 -2 -1 -1 4 -3 -1 3 4 -2 -0 2 5 1
1 2 -1 -0 -3 -0 0 -1 -0 -1 -2 -1 1 -1 -1 -0 -2 -2 -10 -1 4 -3 2 2 2 1 1 -1 -6 -1 -4 -3 -8 -1 -3 -2 -4 1 -5 4 1 3 3 -3 -21
1 3 -0 1 -1 -1 -1 -1 -0 1 -2 -0 0 -2 -4 -0 -9 -2 -2 -3 -2 2 1 3 -0 -1 -7 -1 -3 -3 -1 -0 -7 0 -0 -2 -1 5 0 -4 -2 7 15 13 -1
-2 2 1 0 -1 -0 -1 0 -3 1 -1 -2 1 -1 -2 -10 -3 -7 15 1 -5 1 -1 -5 -5 -3 -3 -4 -0 -1 -1 -2 0 -7 -3 -1 2 1 -0 -4 3 0 -1 2 2
-1 -0 -0 1 -2 -1 -1 -2 0 -0 -8 1 -2 -4 -3 2 4 -10 -11 -1 0 -7 -2 -1 -10 1 2 1 0 1 1 1 -3 -2 1 2 1 2 2 -8 -5 -4 -3 0 -3
-0 -2 -0 -1 -1 -4 -2 -2 -1 -0 -4 -2 3 -4 -2 0 -7 -12 -6 -10 -8 -0 -3 -9 -0 -0 1 -0 2 -0 1 -2 -7 -1 3 -0 5 3 -0 5 7 4 -1 1 -7
2 1 0 -1 -1 0 -3 -1 -3 -1 -4 1 -1 -1 -1 2 2 -4 -4 2 -1 -2 -0 -0 -3 -0 2 -3 -3 -2 0 -0 4 -4 -0 1 1 -9 -4 -3 -3 0 10 10 9
2 -3 2 -1 -2 -0 -1 1 -1 0 -10 -8 -5 -4 -10 2 -1 6 -4 4 -5 1 1 0 -3 1 -2 0 4 1 0 3 1 1 0 2 3 -4 -2 -3 -4 -3 -5 -3 -8
2 -4 3 -1 -1 -2 0 -0 -1 -0 -9 -4 -3 3 1 -13 -1 -13 2 -2 0 -0 -6 -6 -1 -2 -2 5 3 -8 5 2 0 0 1 -2 -6 0 -2 -9 -4 -3 -1 -4 -4
-0 -2 3 1 1 -2 -2 -0 -2 -21 -11 -1 1 -3 -6 -3 -2 -5 -6 -1 1 -1 -3 -1 -1 2 2 -3 2 0 -2 -1 -1 -1 -4 -0 -2 -0 1 11 -5 -5 -4 0 0
-1 -2 2 1 -1 -3 -1 -2 -15 -11 -4 -1 -2 -1 -0 -1 -5 -3 -2 -6 -5 -10 -6 -6 -2 -3 2 -1 -3 -8 -6 -5 -9 -9 3 0 -8 4 0 0 7 4 -2 -3 -1
-2 -0 -1 1 5 -1 -2 -11 -8 -3 -0 1 -1 -1 -2 -0 -1 -2 -1 -3 -1 -3 -1 0 -22 -1 -4 1 6 1 -2 -4 -1 -0 -1 -2 -0 2 7 2 -1 5 7 3 1
-2 -2 1 -1 2 -1 -2 -7 -8 -2 -1 -1 -0 -3 -2 -1 -3 -2 0 1 1 0 -5 -1 -6 -5 1 0 -1 -7 -6 -1 0 -1 1 2 -4 3 -6 -6 -6 -2 -4 -4 -2
-0 -1 -1 -1 2 1 -10 -3 -0 0 -1 -1 -2 -0 0 -1 -5 -5 -2 -2 -1 0 -0 -1 -3 -1 -5 -4 -5 -5 -3 -7 -5 -5 -3 -2 0 -2 -8 -4 -4 -8 -3 -5 -4
-0 -1 2 -0 4 0 -5 -1 0 0 -1 -2 -1 -1 -0 -1 -1 0 -4 -5 -0 -2 0 -1 -5 -18 -6 -3 2 -7 -4 -5 1 -0 -2 0 -1 3 5 4 3 -0 -2 1 3
-1 -1 1 -1 -4 1 -1 -2 -0 1 -0 -1 -3 -1 -1 -0 -0 -0 -0 -4 1 1 -0 -1 -1 -0 -5 -1 2 -1 1 1 -3 -7 0 1 -4 1 3 2 3 1 2 2 4
-0 0 3 -0 -5 -0 2 0 -0 0 0 0 -0 -1 0 -0 -6 1 -0 1 -1 -1 3 -4 -4 -5 -19 -15 -6 -1 -0 1 0 -1 1 -1 -4 -0 -4 -5 -2 1 -2 -4 -2
-4 -4 2 1 0 -6 -1 1 0 -0 -0 -0 -1 -1 -2 -0 -1 -1 -0 0 -0 1 1 -1 -0 -7 -7 -10 -3 -3 -1 -1 -0 -2 -1 -0 -6 -5 -5 -1 -6 -5 -1 1 -1
-3 -1 2 -3 -2 -0 -3 -2 0 0 0 1 1 -1 -3 -2 -1 -0 -0 -3 -1 0 -2 -6 -2 -1 -1 -1 1 -1 0 -0 -1 -0 -2 -3 1 -0 3 3 1 2 -2 -3 -4
-8 -4 0 -0 1 -3 -2 -2 -2 2 -6 -1 -2 0 -0 -3 -6 -4 -2 -1 0 -4 -1 -1 -3 -1 -2 0 0 0 -0 -0 0 -0 -1 0 -3 7 -3 -0 -2 1 -1 -3 -2
-0 -5 3 1 1 -3 -3 -1 -2 -4 -1 1 -3 -3 1 -1 -1 1 1 -0 -1 -4 -0 -2 -1 -2 -4 0 -1 -6 -2 -0 -1 -0 0 -1 -4 -1 -8 -3 1 1 0 1 -2
Height
1540 1538 1534 1531 1527 1523 1520 1518 1517 1516 1515 1514 1513 1512 1511 1511 1510 1508 1505 1507 1503 1498 1493 1489 1488 1485 1483 1482 1483 1482 1490 1486 1479 1476 1467 1463 1462 1458 1459 1454 1450 1447 1445 1443 1436
1541 1538 1534 1530 1527 1523 1520 1519 1517 1516 1516 1515 1514 1513 1511 1510 1510 1508 1507 1504 1501 1495 1490 1487 1485 1483 1482 1482 1482 1481 1487 1478 1469 1466 1462 1459 1459 1454 1456 1451 1446 1443 1440 1437 1434
1541 1538 1535 1530 1526 1523 1520 1518 1517 1516 1516 1514 1514 1512 1511 1510 1510 1509 1504 1501 1497 1492 1488 1485 1484 1483 1480 1479 1479 1479 1480 1469 1465 1462 1459 1456 1453 1452 1450 1448 1443 1441 1438 1438 1434
1541 1538 1535 1531 1527 1523 1520 1518 1517 1516 1515 1514 1514 1512 1510 1510 1513 1507 1502 1497 1492 1485 1483 1483 1483 1482 1481 1480 1478 1478 1470 1467 1460 1456 1454 1451 1447 1446 1445 1441 1441 1439 1439 1434 1435
1541 1538 1534 1530 1527 1523 1520 1519 1517 1516 1514 1513 1512 1511 1511 1510 1510 1506 1502 1494 1487 1484 1482 1483 1483 1482 1481 1480 1477 1475 1467 1462 1459 1453 1449 1446 1442 1442 1437 1435 1438 1435 1437 1434 1436
1540 1537 1534 1530 1527 1523 1521 1519 1518 1516 1515 1514 1511 1510 1510 1512 1510 1505 1499 1491 1487 1484 1485 1484 1484 1484 1484 1480 1479 1470 1466 1460 1452 1449 1447 1444 1439 1440 1430 1431 1431 1431 1429 1430 1434
1539 1536 1533 1530 1526 1523 1521 1519 1517 1515 1515 1514 1512 1510 1511 1514 1509 1504 1495 1489 1487 1486 1484 1482 1482 1484 1482 1479 1475 1471 1471 1459 1452 1450 1446 1442 1439 1440 1432 1429 1429 1430 1432 1432 1439
1538 1535 1532 1529 1526 1523 1521 1520 1518 1516 1515 1515 1513 1511 1511 1510 1508 1502 1491 1488 1486 1484 1483 1484 1483 1483 1483 1481 1475 1475 1475 1474 1457 1452 1446 1444 1444 1443 1438 1427 1425 1424 1435 1435 1435
1536 1534 1531 1528 1525 1523 1520 1520 1519 1516 1516 1515 1515 1513 1513 1510 1504 1500 1493 1489 1487 1485 1485 1486 1486 1486 1485 1485 1482 1483 1485 1479 1465 1455 1452 1448 1450 1454 1445 1434 1429 1426 1428 1431 1436
1535 1532 1530 1526 1524 1522 1519 1518 1519 1516 1516 1515 1515 1517 1515 1513 1509 1503 1496 1492 1489 1487 1488 1488 1488 1490 1489 1491 1496 1485 1484 1479 1473 1460 1453 1455 1458 1456 1454 1448 1444 1429 1426 1424 1419
1533 1531 1528 1525 1523 1521 1519 1519 1521 1521 1517 1520 1524 1523 1520 1516 1512 1505 1495 1493 1490 1490 1496 1491 1496 1499 1493 1489 1487 1485 1482 1480 1468 1461 1460 1459 1462 1460 1460 1450 1446 1443 1436 1431 1432
1531 1529 1527 1523 1521 1519 1518 1517 1517 1519 1521 1522 1523 1523 1521 1517 1513 1508 1499 1497 1499 1503 1498 1498 1499 1495 1491 1485 1484 1481 1481 1475 1464 1461 1459 1462 1465 1468 1462 1464 1459 1457 1451 1444 1438
1530 1528 1525 1522 1520 1519 1517 1516 1516 1518 1520 1523 1524 1522 1521 1519 1516 1513 1506 1504 1505 1506 1507 1505 1500 1495 1491 1484 1479 1475 1477 1473 1474 1461 1454 1456 1459 1465 1467 1465 1460 1452 1448 1443 1441
1529 1528 1524 1521 1522 1519 1517 1517 1517 1518 1531 1529 1525 1525 1523 1518 1518 1518 1512 1510 1506 1511 1507 1505 1498 1499 1493 1488 1487 1480 1471 1470 1467 1467 1459 1457 1458 1473 1470 1469 1458 1454 1452 1446 1441
1528 1527 1524 1520 1519 1519 1519 1517 1518 1519 1540 1531 1529 1529 1528 1525 1531 1522 1518 1511 1516 1517 1515 1507 1504 1500 1496 1491 1486 1479 1470 1466 1464 1464 1462 1461 1473 1487 1475 1466 1469 1472 1465 1459 1454
1528 1526 1524 1521 1518 1518 1518 1518 1521 1532 1537 1531 1532 1532 1530 1531 1531 1528 1523 1516 1516 1517 1515 1512 1504 1505 1501 1488 1484 1481 1470 1465 1464 1465 1471 1481 1477 1490 1485 1493 1480 1473 1465 1455 1448
1525 1525 1523 1520 1517 1517 1518 1521 1533 1534 1533 1537 1540 1537 1537 1538 1535 1536 1536 1531 1538 1540 1550 1525 1508 1503 1500 1491 1483 1482 1483 1502 1488 1494 1470 1476 1488 1507 1502 1492 1490 1479 1472 1466 1460
1523 1523 1522 1520 1517 1515 1518 1523 1532 1537 1538 1541 1541 1540 1542 1543 1542 1542 1539 1546 1542 1549 1560 1547 1531 1516 1505 1505 1506 1499 1501 1521 1510 1501 1479 1476 1501 1502 1499 1500 1488 1483 1475 1466 1452
1520 1521 1521 1519 1517 1516 1517 1541 1540 1538 1541 1542 1541 1542 1546 1544 1548 1547 1551 1553 1546 1547 1556 1549 1535 1518 1514 1509 1505 1504 1515 1508 1512 1502 1484 1491 1495 1495 1497 1494 1490 1482 1470 1463 1459
1517 1518 1519 1518 1516 1515 1519 1538 1540 1539 1541 1541 1541 1549 1547 1549 1552 1556 1561 1551 1550 1546 1547 1553 1551 1524 1519 1515 1513 1515 1515 1513 1519 1528 1531 1495 1508 1512 1503 1498 1488 1478 1478 1475 1468
1517 1516 1516 1517 1515 1514 1532 1539 1539 1540 1540 1543 1547 1549 1551 1555 1554 1558 1562 1552 1548 1548 1549 1549 1559 1538 1524 1531 1532 1525 1532 1525 1522 1517 1534 1514 1514 1518 1512 1507 1504 1498 1490 1481 1470
1516 1516 1514 1517 1518 1524 1535 1535 1538 1539 1541 1544 1546 1548 1550 1550 1556 1560 1556 1555 1551 1551 1555 1551 1558 1563 1542 1532 1533 1533 1538 1535 1539 1534 1520 1522 1512 1520 1517 1515 1508 1504 1495 1482 1473
1515 1513 1513 1515 1525 1532 1534 1536 1538 1539 1540 1542 1546 1547 1549 1550 1560 1553 1551 1552 1551 1551 1550 1551 1566 1575 1549 1541 1533 1538 1540 1542 1536 1535 1535 1539 1516 1517 1516 1512 1507 1499 1492 1484 1475
1515 1515 1511 1512 1514 1516 1529 1535 1540 1541 1541 1541 1543 1545 1550 1552 1553 1553 1551 1551 1551 1552 1551 1550 1561 1567 1570 1556 1553 1553 1548 1545 1543 1546 1545 1535 1531 1518 1518 1513 1505 1498 1493 1488 1484
1513 1511 1509 1516 1516 1516 1522 1530 1536 1541 1542 1542 1543 1543 1549 1562 1562 1558 1551 1551 1551 1553 1552 1555 1565 1566 1556 1551 1549 1545 1551 1548 1556 1546 1547 1540 1540 1529 1525 1518 1512 1505 1496 1488 1479
1506 1511 1512 1514 1515 1516 1525 1530 1530 1537 1541 1542 1542 1543 1546 1552 1552 1560 1555 1555 1555 1553 1555 1557 1562 1558 1563 1544 1547 1545 1548 1547 1547 1547 1543 1543 1533 1529 1526 1520 1513 1508 1501 1491 1486
1499 1504 1509 1516 1515 1520 1520 1525 1527 1531 1539 1539 1537 1542 1546 1544 1547 1550 1551 1552 1554 1557 1561 1566 1566 1569 1569 1548 1554 1555 1558 1554 1548 1551 1549 1546 1537 1532 1523 1517 1513 1511 1504 1498 1489